Time,TemperatureF,DewpointF,PressureIn,WindDirection,WindDirectionDegrees,WindSpeedMPH,WindSpeedGustMPH,Humidity,HourlyPrecipIn,Conditions,Clouds,dailyrainin,SoftwareType,DateUTC
2013-03-23 00:11:00,30.0,5.7,30.03,NNW,338,3.0,-999.0,35,-99.99,,,0.00,meteohub,2013-03-23 04:11:00,
2013-03-23 00:12:00,29.8,5.5,30.03,NNW,338,3.0,-999.0,35,-99.99,,,0.00,meteohub,2013-03-23 04:12:00,
2013-03-23 00:18:00,29.7,5.4,30.03,NNW,338,4.0,-999.0,35,-99.99,,,0.00,meteohub,2013-03-23 04:18:00,
2013-03-23 00:23:00,29.7,6.6,30.03,WNW,292,4.0,-999.0,37,-99.99,,,0.00,meteohub,2013-03-23 04:23:00,
2013-03-23 00:29:00,29.5,7.0,30.03,WNW,292,4.0,-999.0,38,-99.99,,,0.00,meteohub,2013-03-23 04:29:00,
2013-03-23 00:34:00,29.3,7.5,30.03,NNW,338,3.0,-999.0,39,-99.99,,,0.00,meteohub,2013-03-23 04:34:00,
2013-03-23 00:39:00,29.1,6.8,30.03,NNW,338,3.0,-999.0,38,-99.99,,,0.00,meteohub,2013-03-23 04:39:00,
2013-03-23 00:44:00,28.9,5.9,30.03,NW,315,4.0,-999.0,37,-99.99,,,0.00,meteohub,2013-03-23 04:44:00,
2013-03-23 00:49:00,28.9,5.9,30.03,NNW,338,3.0,-999.0,37,-99.99,,,0.00,meteohub,2013-03-23 04:49:00,
2013-03-23 00:54:00,28.8,5.7,30.03,NNW,338,4.0,4.0,37,0.00,,,0.00,meteohub,2013-03-23 04:54:00,
2013-03-23 00:59:00,28.8,7.0,30.03,NNW,338,3.0,4.0,39,0.00,,,0.00,meteohub,2013-03-23 04:59:00,
2013-03-23 01:05:00,28.6,6.8,30.03,NW,315,4.0,4.0,39,0.00,,,0.00,meteohub,2013-03-23 05:05:00,
2013-03-23 01:10:00,28.6,7.3,30.03,NW,315,3.0,4.0,40,0.00,,,0.00,meteohub,2013-03-23 05:10:00,
2013-03-23 01:16:00,28.6,7.3,30.03,NNW,338,4.0,5.0,40,0.00,,,0.00,meteohub,2013-03-23 05:16:00,
2013-03-23 01:21:00,28.6,7.3,30.03,NW,315,3.0,6.0,40,0.00,,,0.00,meteohub,2013-03-23 05:21:00,
2013-03-23 01:26:00,28.4,7.7,30.03,NW,315,5.0,6.0,41,0.00,,,0.00,meteohub,2013-03-23 05:26:00,
2013-03-23 01:31:00,28.2,7.0,30.03,NW,315,3.0,6.0,40,-99.99,,,0.00,meteohub,2013-03-23 05:31:00,
2013-03-23 01:37:00,28.2,7.5,30.03,NW,315,4.0,6.0,41,-99.99,,,0.00,meteohub,2013-03-23 05:37:00,
2013-03-23 01:42:00,28.0,6.8,30.03,NNW,338,3.0,6.0,40,-99.99,,,0.00,meteohub,2013-03-23 05:42:00,
2013-03-23 01:48:00,27.9,7.2,30.03,NNW,338,3.0,4.0,41,0.00,,,0.00,meteohub,2013-03-23 05:48:00,
2013-03-23 01:53:00,27.9,7.2,30.03,NNW,338,4.0,4.0,41,0.00,,,0.00,meteohub,2013-03-23 05:53:00,
2013-03-23 01:58:00,27.9,7.2,30.03,NNW,338,3.0,4.0,41,-99.99,,,0.00,meteohub,2013-03-23 05:58:00,
2013-03-23 02:03:00,27.7,7.2,30.03,NNW,338,5.0,5.0,41,-99.99,,,0.00,meteohub,2013-03-23 06:03:00,
2013-03-23 02:08:00,27.7,7.2,30.03,NNW,338,4.0,5.0,41,-99.99,,,0.00,meteohub,2013-03-23 06:08:00,
2013-03-23 02:14:00,27.5,7.5,30.03,NNW,338,3.0,5.0,42,0.00,,,0.00,meteohub,2013-03-23 06:14:00,
2013-03-23 02:19:00,27.5,7.5,30.03,NNW,338,3.0,5.0,42,0.00,,,0.00,meteohub,2013-03-23 06:19:00,
2013-03-23 02:24:00,27.3,7.3,30.03,NNW,338,3.0,5.0,42,0.00,,,0.00,meteohub,2013-03-23 06:24:00,
2013-03-23 02:30:00,27.3,7.3,30.03,NNW,338,2.0,5.0,42,-99.99,,,0.00,meteohub,2013-03-23 06:30:00,
2013-03-23 02:35:00,27.1,7.2,30.03,NNW,338,3.0,6.0,42,-99.99,,,0.00,meteohub,2013-03-23 06:35:00,
2013-03-23 02:40:00,27.1,7.2,30.03,North,0,2.0,6.0,42,-99.99,,,0.00,meteohub,2013-03-23 06:40:00,
2013-03-23 02:45:00,27.0,7.0,30.03,NNW,338,3.0,4.0,42,0.00,,,0.00,meteohub,2013-03-23 06:45:00,
2013-03-23 02:50:00,27.0,7.0,30.03,NW,315,2.0,4.0,42,0.00,,,0.00,meteohub,2013-03-23 06:50:00,
2013-03-23 02:56:00,27.0,7.5,30.03,NW,315,2.0,4.0,43,0.00,,,0.00,meteohub,2013-03-23 06:56:00,
2013-03-23 03:01:00,26.8,6.8,30.03,NW,315,3.0,4.0,42,-99.99,,,0.00,meteohub,2013-03-23 07:01:00,
2013-03-23 03:06:00,26.6,7.2,30.03,NNW,338,1.0,4.0,43,-99.99,,,0.00,meteohub,2013-03-23 07:06:00,
2013-03-23 03:11:00,26.6,7.2,30.03,WNW,292,2.0,4.0,43,-99.99,,,0.00,meteohub,2013-03-23 07:11:00,
2013-03-23 03:16:00,26.4,7.0,30.03,WNW,292,2.0,3.0,43,0.00,,,0.00,meteohub,2013-03-23 07:16:00,
2013-03-23 03:22:00,26.4,7.5,30.03,NW,315,2.0,3.0,44,0.00,,,0.00,meteohub,2013-03-23 07:22:00,
2013-03-23 03:27:00,26.2,6.8,30.03,NNW,338,2.0,3.0,43,0.00,,,0.00,meteohub,2013-03-23 07:27:00,
2013-03-23 03:32:00,26.1,6.6,30.03,NNE,22,1.0,3.0,43,0.00,,,0.00,meteohub,2013-03-23 07:32:00,
2013-03-23 03:37:00,26.1,6.6,30.03,NE,45,0.0,4.0,43,0.00,,,0.00,meteohub,2013-03-23 07:37:00,
2013-03-23 03:42:00,25.9,6.4,30.03,East,90,0.0,4.0,43,0.00,,,0.00,meteohub,2013-03-23 07:42:00,
2013-03-23 03:48:00,25.7,5.9,30.03,ENE,68,1.0,2.0,42,0.00,,,0.00,meteohub,2013-03-23 07:48:00,
2013-03-23 03:53:00,25.5,5.7,30.03,ENE,68,0.0,2.0,42,0.00,,,0.00,meteohub,2013-03-23 07:53:00,
2013-03-23 03:58:00,25.3,5.5,30.03,NE,45,2.0,2.0,42,0.00,,,0.00,meteohub,2013-03-23 07:58:00,
2013-03-23 04:04:00,25.3,6.1,30.03,ENE,68,2.0,2.0,43,0.00,,,0.00,meteohub,2013-03-23 08:04:00,
2013-03-23 04:09:00,25.2,5.9,30.03,ESE,112,1.0,2.0,43,0.00,,,0.00,meteohub,2013-03-23 08:09:00,
2013-03-23 04:14:00,25.0,5.7,30.03,NNE,22,0.0,2.0,43,0.00,,,0.00,meteohub,2013-03-23 08:14:00,
2013-03-23 04:20:00,24.8,5.5,30.03,East,90,0.0,2.0,43,0.00,,,0.00,meteohub,2013-03-23 08:20:00,
2013-03-23 04:25:00,24.6,5.4,30.03,East,90,0.0,2.0,43,0.00,,,0.00,meteohub,2013-03-23 08:25:00,
2013-03-23 04:31:00,24.4,5.2,30.03,ESE,112,0.0,2.0,43,0.00,,,0.00,meteohub,2013-03-23 08:31:00,
2013-03-23 04:36:00,24.3,5.0,30.03,ESE,112,0.0,-999.0,43,0.00,,,0.00,meteohub,2013-03-23 08:36:00,
2013-03-23 04:41:00,24.1,5.4,30.03,SSE,158,0.0,-999.0,44,0.00,,,0.00,meteohub,2013-03-23 08:41:00,
2013-03-23 04:46:00,24.1,5.9,30.03,SSW,202,0.0,-999.0,45,0.00,,,0.00,meteohub,2013-03-23 08:46:00,
2013-03-23 04:51:00,24.1,6.8,30.03,SSW,202,0.0,-999.0,47,0.00,,,0.00,meteohub,2013-03-23 08:51:00,
2013-03-23 04:57:00,24.1,7.3,30.03,SSW,202,0.0,-999.0,48,0.00,,,0.00,meteohub,2013-03-23 08:57:00,
2013-03-23 05:02:00,23.9,7.2,30.03,South,180,0.0,-999.0,48,0.00,,,0.00,meteohub,2013-03-23 09:02:00,
2013-03-23 05:07:00,23.5,7.2,30.03,SSE,158,0.0,-999.0,49,-99.99,,,0.00,meteohub,2013-03-23 09:07:00,
2013-03-23 05:13:00,23.5,7.7,30.03,SSE,158,0.0,-999.0,50,-99.99,,,0.00,meteohub,2013-03-23 09:13:00,
2013-03-23 05:18:00,23.5,7.7,30.03,SW,225,0.0,-999.0,50,-99.99,,,0.00,meteohub,2013-03-23 09:18:00,
2013-03-23 05:23:00,23.5,9.0,30.03,WSW,248,2.0,-999.0,53,-99.99,,,0.00,meteohub,2013-03-23 09:23:00,
2013-03-23 05:28:00,23.5,9.9,30.03,South,180,0.0,-999.0,55,-99.99,,,0.00,meteohub,2013-03-23 09:28:00,
2013-03-23 05:33:00,23.4,9.1,30.03,WSW,248,0.0,-999.0,54,-99.99,,,0.00,meteohub,2013-03-23 09:33:00,
2013-03-23 05:39:00,23.4,9.7,30.03,West,270,0.0,-999.0,55,-99.99,,,0.00,meteohub,2013-03-23 09:39:00,
2013-03-23 05:44:00,23.2,9.9,30.03,WSW,248,0.0,-999.0,56,-99.99,,,0.00,meteohub,2013-03-23 09:44:00,
2013-03-23 05:49:00,23.0,9.7,30.03,WSW,248,0.0,-999.0,56,-99.99,,,0.00,meteohub,2013-03-23 09:49:00,
2013-03-23 05:55:00,23.0,10.0,30.00,West,270,0.0,-999.0,57,-99.99,,,0.00,meteohub,2013-03-23 09:55:00,
2013-03-23 06:00:00,22.8,9.5,30.00,West,270,0.0,-999.0,56,-99.99,,,0.00,meteohub,2013-03-23 10:00:00,
2013-03-23 06:05:00,22.8,9.1,30.00,West,270,0.0,-999.0,55,-99.99,,,0.00,meteohub,2013-03-23 10:05:00,
2013-03-23 06:10:00,22.6,8.6,30.03,West,270,0.0,-999.0,54,-99.99,,,0.00,meteohub,2013-03-23 10:10:00,
2013-03-23 06:16:00,22.5,8.4,30.03,South,180,0.0,-999.0,54,-99.99,,,0.00,meteohub,2013-03-23 10:16:00,
2013-03-23 06:21:00,22.5,7.9,30.03,ESE,112,0.0,-999.0,53,-99.99,,,0.00,meteohub,2013-03-23 10:21:00,
2013-03-23 06:27:00,22.5,8.4,30.03,ESE,112,0.0,-999.0,54,-99.99,,,0.00,meteohub,2013-03-23 10:27:00,
2013-03-23 06:32:00,22.5,8.4,30.03,SSE,158,0.0,-999.0,54,-99.99,,,0.00,meteohub,2013-03-23 10:32:00,
2013-03-23 06:37:00,22.6,9.0,30.03,SSE,158,0.0,-999.0,55,-99.99,,,0.00,meteohub,2013-03-23 10:37:00,
2013-03-23 06:43:00,22.5,8.4,30.03,SSE,158,0.0,-999.0,54,-99.99,,,0.00,meteohub,2013-03-23 10:43:00,
2013-03-23 06:48:00,22.5,8.4,30.03,SSE,158,0.0,-999.0,54,-99.99,,,0.00,meteohub,2013-03-23 10:48:00,
2013-03-23 06:53:00,22.5,8.8,30.03,SSE,158,0.0,-999.0,55,-99.99,,,0.00,meteohub,2013-03-23 10:53:00,
2013-03-23 06:59:00,22.8,9.5,30.03,SSW,202,0.0,-999.0,56,-99.99,,,0.00,meteohub,2013-03-23 10:59:00,
2013-03-23 07:04:00,23.0,11.1,30.03,WSW,248,0.0,-999.0,60,-99.99,,,0.00,meteohub,2013-03-23 11:04:00,
2013-03-23 07:09:00,23.2,11.8,30.03,SW,225,0.0,-999.0,61,-99.99,,,0.00,meteohub,2013-03-23 11:09:00,
2013-03-23 07:15:00,23.4,11.5,30.03,NNW,338,2.0,-999.0,60,-99.99,,,0.00,meteohub,2013-03-23 11:15:00,
2013-03-23 07:20:00,23.5,10.9,30.03,NNW,338,1.0,-999.0,58,-99.99,,,0.00,meteohub,2013-03-23 11:20:00,
2013-03-23 07:25:00,23.7,10.4,30.03,NNW,338,2.0,-999.0,56,-99.99,,,0.00,meteohub,2013-03-23 11:25:00,
2013-03-23 07:31:00,24.1,10.2,30.03,NNW,338,2.0,-999.0,55,-99.99,,,0.00,meteohub,2013-03-23 11:31:00,
2013-03-23 07:36:00,24.3,10.4,30.03,NNW,338,0.0,-999.0,55,-99.99,,,0.00,meteohub,2013-03-23 11:36:00,
2013-03-23 07:41:00,24.4,10.6,30.03,NNW,338,0.0,-999.0,55,-99.99,,,0.00,meteohub,2013-03-23 11:41:00,
2013-03-23 07:47:00,24.8,10.9,30.03,NW,315,0.0,-999.0,55,-99.99,,,0.00,meteohub,2013-03-23 11:47:00,
2013-03-23 07:52:00,25.0,11.1,30.03,NNW,338,0.0,-999.0,55,-99.99,,,0.00,meteohub,2013-03-23 11:52:00,
2013-03-23 07:57:00,25.3,11.5,30.06,NNW,338,1.0,-999.0,55,-99.99,,,0.00,meteohub,2013-03-23 11:57:00,
2013-03-23 08:02:00,25.5,11.7,30.06,NNE,22,3.0,-999.0,55,-99.99,,,0.00,meteohub,2013-03-23 12:02:00,
2013-03-23 08:07:00,25.7,12.2,30.06,NNE,22,2.0,-999.0,56,-99.99,,,0.00,meteohub,2013-03-23 12:07:00,
2013-03-23 08:12:00,26.1,12.6,30.06,NNE,22,3.0,-999.0,56,-99.99,,,0.00,meteohub,2013-03-23 12:12:00,
2013-03-23 08:18:00,26.2,12.7,30.06,NNE,22,2.0,-999.0,56,-99.99,,,0.00,meteohub,2013-03-23 12:18:00,
2013-03-23 08:23:00,26.6,13.5,30.06,NNE,22,3.0,-999.0,57,-99.99,,,0.00,meteohub,2013-03-23 12:23:00,
2013-03-23 08:28:00,26.6,13.5,30.06,NNE,22,3.0,-999.0,57,-99.99,,,0.00,meteohub,2013-03-23 12:28:00,
2013-03-23 08:33:00,27.0,13.8,30.06,NNE,22,2.0,-999.0,57,-99.99,,,0.00,meteohub,2013-03-23 12:33:00,
2013-03-23 08:39:00,27.1,13.6,30.06,NNW,338,3.0,-999.0,56,-99.99,,,0.00,meteohub,2013-03-23 12:39:00,
2013-03-23 08:44:00,27.3,13.6,30.06,NNW,338,3.0,-999.0,56,-99.99,,,0.00,meteohub,2013-03-23 12:44:00,
2013-03-23 08:49:00,27.5,13.5,30.06,NNE,22,2.0,-999.0,55,-99.99,,,0.00,meteohub,2013-03-23 12:49:00,
2013-03-23 08:54:00,27.9,13.8,30.06,NNE,22,3.0,-999.0,55,-99.99,,,0.00,meteohub,2013-03-23 12:54:00,
2013-03-23 09:00:00,28.0,13.1,30.06,NE,45,3.0,-999.0,53,-99.99,,,0.00,meteohub,2013-03-23 13:00:00,
2013-03-23 09:05:00,28.2,12.9,30.06,NNE,22,2.0,-999.0,52,-99.99,,,0.00,meteohub,2013-03-23 13:05:00,
2013-03-23 09:10:00,28.6,11.8,30.06,ENE,68,2.0,-999.0,49,-99.99,,,0.00,meteohub,2013-03-23 13:10:00,
2013-03-23 09:15:00,28.6,10.4,30.06,NE,45,4.0,-999.0,46,-99.99,,,0.00,meteohub,2013-03-23 13:15:00,
2013-03-23 09:21:00,28.8,10.0,30.06,NNE,22,3.0,-999.0,45,-99.99,,,0.00,meteohub,2013-03-23 13:21:00,
2013-03-23 09:26:00,28.9,8.8,30.06,ENE,68,6.0,-999.0,42,-99.99,,,0.00,meteohub,2013-03-23 13:26:00,
2013-03-23 09:31:00,29.1,9.0,30.06,NNW,338,3.0,-999.0,42,-99.99,,,0.00,meteohub,2013-03-23 13:31:00,
2013-03-23 09:36:00,29.3,8.6,30.06,NNE,22,7.0,-999.0,41,-99.99,,,0.00,meteohub,2013-03-23 13:36:00,
2013-03-23 09:42:00,29.1,6.8,30.09,ENE,68,5.0,-999.0,38,-99.99,,,0.00,meteohub,2013-03-23 13:42:00,
2013-03-23 09:47:00,29.3,6.8,30.09,North,0,4.0,-999.0,38,-99.99,,,0.00,meteohub,2013-03-23 13:47:00,
2013-03-23 09:52:00,29.3,7.5,30.09,NNE,22,3.0,-999.0,39,-99.99,,,0.00,meteohub,2013-03-23 13:52:00,
2013-03-23 09:57:00,29.5,7.5,30.09,NE,45,4.0,-999.0,39,-99.99,,,0.00,meteohub,2013-03-23 13:57:00,
2013-03-23 10:02:00,29.5,7.5,30.09,North,0,3.0,-999.0,39,-99.99,,,0.00,meteohub,2013-03-23 14:02:00,
2013-03-23 10:07:00,29.5,7.0,30.09,NNE,22,4.0,-999.0,38,-99.99,,,0.00,meteohub,2013-03-23 14:07:00,
2013-03-23 10:12:00,29.5,7.0,30.09,NNE,22,5.0,-999.0,38,-99.99,,,0.00,meteohub,2013-03-23 14:12:00,
2013-03-23 10:18:00,29.5,6.4,30.09,NE,45,5.0,-999.0,37,-99.99,,,0.00,meteohub,2013-03-23 14:18:00,
2013-03-23 10:23:00,29.7,6.6,30.09,NNW,338,4.0,-999.0,37,-99.99,,,0.00,meteohub,2013-03-23 14:23:00,
2013-03-23 10:28:00,29.5,5.9,30.09,NNW,338,6.0,-999.0,36,-99.99,,,0.00,meteohub,2013-03-23 14:28:00,
2013-03-23 10:33:00,29.5,5.9,30.09,NNE,22,6.0,-999.0,36,-99.99,,,0.00,meteohub,2013-03-23 14:33:00,
2013-03-23 10:39:00,29.5,5.9,30.09,NNW,338,6.0,-999.0,36,-99.99,,,0.00,meteohub,2013-03-23 14:39:00,
2013-03-23 10:44:00,29.5,6.4,30.09,NW,315,4.0,-999.0,37,-99.99,,,0.00,meteohub,2013-03-23 14:44:00,
2013-03-23 10:49:00,29.5,6.4,30.09,NNE,22,4.0,-999.0,37,-99.99,,,0.00,meteohub,2013-03-23 14:49:00,
2013-03-23 10:54:00,29.5,6.4,30.09,NW,315,3.0,-999.0,37,-99.99,,,0.00,meteohub,2013-03-23 14:54:00,
2013-03-23 10:59:00,29.7,6.6,30.09,NNE,22,2.0,-999.0,37,-99.99,,,0.00,meteohub,2013-03-23 14:59:00,
2013-03-23 11:05:00,29.7,6.6,30.09,NNW,338,3.0,-999.0,37,-99.99,,,0.00,meteohub,2013-03-23 15:05:00,
2013-03-23 11:10:00,29.7,6.1,30.09,NNW,338,2.0,-999.0,36,-99.99,,,0.00,meteohub,2013-03-23 15:10:00,
2013-03-23 11:15:00,29.8,6.8,30.09,North,0,6.0,-999.0,37,-99.99,,,0.00,meteohub,2013-03-23 15:15:00,
2013-03-23 11:21:00,30.2,7.2,30.09,NE,45,0.0,-999.0,37,-99.99,,,0.00,meteohub,2013-03-23 15:21:00,
2013-03-23 11:26:00,30.4,6.1,30.09,WNW,292,3.0,-999.0,35,-99.99,,,0.00,meteohub,2013-03-23 15:26:00,
2013-03-23 11:32:00,30.7,7.0,30.09,ESE,112,0.0,-999.0,36,-99.99,,,0.00,meteohub,2013-03-23 15:32:00,
2013-03-23 11:37:00,31.1,7.9,30.09,NW,315,4.0,-999.0,37,-99.99,,,0.00,meteohub,2013-03-23 15:37:00,
2013-03-23 11:42:00,30.7,5.7,30.09,NW,315,3.0,-999.0,34,-99.99,,,0.00,meteohub,2013-03-23 15:42:00,
2013-03-23 11:47:00,30.7,5.7,30.09,North,0,4.0,-999.0,34,-99.99,,,0.00,meteohub,2013-03-23 15:47:00,
2013-03-23 11:52:00,30.7,5.7,30.09,WNW,292,3.0,-999.0,34,-99.99,,,0.00,meteohub,2013-03-23 15:52:00,
2013-03-23 11:57:00,30.7,5.7,30.09,WNW,292,2.0,-999.0,34,-99.99,,,0.00,meteohub,2013-03-23 15:57:00,
2013-03-23 12:02:00,31.1,6.1,30.09,North,0,1.0,-999.0,34,-99.99,,,0.00,meteohub,2013-03-23 16:02:00,
2013-03-23 12:07:00,31.3,6.3,30.09,NNE,22,3.0,-999.0,34,-99.99,,,0.00,meteohub,2013-03-23 16:07:00,
2013-03-23 12:13:00,31.6,6.4,30.09,ENE,68,0.0,-999.0,34,-99.99,,,0.00,meteohub,2013-03-23 16:13:00,
2013-03-23 12:18:00,31.8,6.6,30.09,NW,315,0.0,-999.0,34,-99.99,,,0.00,meteohub,2013-03-23 16:18:00,
2013-03-23 12:24:00,32.2,7.0,30.09,NNW,338,3.0,-999.0,34,-99.99,,,0.00,meteohub,2013-03-23 16:24:00,
2013-03-23 12:29:00,32.0,6.3,30.09,NNW,338,2.0,-999.0,33,-99.99,,,0.00,meteohub,2013-03-23 16:29:00,
2013-03-23 12:35:00,31.8,5.4,30.09,NNW,338,4.0,-999.0,32,-99.99,,,0.00,meteohub,2013-03-23 16:35:00,
2013-03-23 12:40:00,31.5,5.0,30.09,NW,315,2.0,-999.0,32,-99.99,,,0.00,meteohub,2013-03-23 16:40:00,
2013-03-23 12:45:00,31.8,6.1,30.09,NNE,22,0.0,-999.0,33,-99.99,,,0.00,meteohub,2013-03-23 16:45:00,
2013-03-23 12:51:00,32.2,6.4,30.09,NW,315,2.0,-999.0,33,-99.99,,,0.00,meteohub,2013-03-23 16:51:00,
2013-03-23 12:56:00,32.2,5.0,30.09,WNW,292,2.0,-999.0,31,-99.99,,,0.00,meteohub,2013-03-23 16:56:00,
2013-03-23 13:01:00,32.4,5.9,30.09,West,270,0.0,-999.0,32,-99.99,,,0.00,meteohub,2013-03-23 17:01:00,
2013-03-23 13:07:00,32.5,5.4,30.09,NNW,338,6.0,-999.0,31,-99.99,,,0.00,meteohub,2013-03-23 17:07:00,
2013-03-23 13:12:00,32.5,5.4,30.06,NW,315,2.0,-999.0,31,-99.99,,,0.00,meteohub,2013-03-23 17:12:00,
2013-03-23 13:17:00,32.5,5.4,30.06,NNE,22,5.0,-999.0,31,-99.99,,,0.00,meteohub,2013-03-23 17:17:00,
2013-03-23 13:22:00,32.5,5.4,30.06,NE,45,3.0,-999.0,31,-99.99,,,0.00,meteohub,2013-03-23 17:22:00,
2013-03-23 13:27:00,32.7,5.5,30.06,NE,45,4.0,-999.0,31,-99.99,,,0.00,meteohub,2013-03-23 17:27:00,
2013-03-23 13:32:00,32.7,5.5,30.06,NNW,338,5.0,-999.0,31,-99.99,,,0.00,meteohub,2013-03-23 17:32:00,
2013-03-23 13:37:00,32.7,5.5,30.06,NW,315,5.0,-999.0,31,-99.99,,,0.00,meteohub,2013-03-23 17:37:00,
2013-03-23 13:42:00,32.9,5.7,30.06,North,0,4.0,-999.0,31,-99.99,,,0.00,meteohub,2013-03-23 17:42:00,
2013-03-23 13:47:00,32.9,5.7,30.06,NNW,338,4.0,-999.0,31,-99.99,,,0.00,meteohub,2013-03-23 17:47:00,
2013-03-23 13:52:00,33.1,5.9,30.06,NNW,338,4.0,-999.0,31,-99.99,,,0.00,meteohub,2013-03-23 17:52:00,
2013-03-23 13:58:00,33.1,5.9,30.09,NNW,338,5.0,-999.0,31,-99.99,,,0.00,meteohub,2013-03-23 17:58:00,
2013-03-23 14:03:00,33.1,5.9,30.09,North,0,3.0,-999.0,31,-99.99,,,0.00,meteohub,2013-03-23 18:03:00,
2013-03-23 14:08:00,33.4,6.1,30.09,NNW,338,5.0,-999.0,31,-99.99,,,0.00,meteohub,2013-03-23 18:08:00,
2013-03-23 14:13:00,33.4,5.4,30.09,NNE,22,2.0,-999.0,30,-99.99,,,0.00,meteohub,2013-03-23 18:13:00,
2013-03-23 14:18:00,33.4,5.4,30.09,NNW,338,5.0,-999.0,30,-99.99,,,0.00,meteohub,2013-03-23 18:18:00,
2013-03-23 14:23:00,33.3,5.2,30.09,WNW,292,5.0,-999.0,30,-99.99,,,0.00,meteohub,2013-03-23 18:23:00,
2013-03-23 14:29:00,33.6,5.5,30.09,North,0,2.0,-999.0,30,-99.99,,,0.00,meteohub,2013-03-23 18:29:00,
2013-03-23 14:34:00,33.6,5.5,30.09,NNE,22,6.0,-999.0,30,-99.99,,,0.00,meteohub,2013-03-23 18:34:00,
2013-03-23 14:39:00,33.6,5.5,30.09,ENE,68,2.0,-999.0,30,-99.99,,,0.00,meteohub,2013-03-23 18:39:00,
2013-03-23 14:44:00,34.2,6.1,30.09,NNE,22,3.0,-999.0,30,-99.99,,,0.00,meteohub,2013-03-23 18:44:00,
2013-03-23 14:50:00,34.2,6.1,30.09,NW,315,5.0,-999.0,30,-99.99,,,0.00,meteohub,2013-03-23 18:50:00,
2013-03-23 14:55:00,34.3,6.3,30.06,NE,45,3.0,-999.0,30,-99.99,,,0.00,meteohub,2013-03-23 18:55:00,
2013-03-23 15:00:00,34.3,6.3,30.06,ENE,68,1.0,-999.0,30,-99.99,,,0.00,meteohub,2013-03-23 19:00:00,
2013-03-23 15:05:00,34.7,6.4,30.06,NW,315,6.0,-999.0,30,-99.99,,,0.00,meteohub,2013-03-23 19:05:00,
2013-03-23 15:11:00,34.3,6.3,30.06,NNE,22,2.0,-999.0,30,-99.99,,,0.00,meteohub,2013-03-23 19:11:00,
2013-03-23 15:16:00,34.3,6.3,30.06,ENE,68,3.0,-999.0,30,-99.99,,,0.00,meteohub,2013-03-23 19:16:00,
2013-03-23 15:21:00,34.5,6.4,30.06,WNW,292,6.0,-999.0,30,-99.99,,,0.00,meteohub,2013-03-23 19:21:00,
2013-03-23 15:26:00,34.3,3.9,30.09,NW,315,3.0,-999.0,27,-99.99,,,0.00,meteohub,2013-03-23 19:26:00,
2013-03-23 15:32:00,34.2,6.1,30.09,NNW,338,9.0,-999.0,30,-99.99,,,0.00,meteohub,2013-03-23 19:32:00,
2013-03-23 15:37:00,34.3,3.9,30.09,North,0,8.0,-999.0,27,-99.99,,,0.00,meteohub,2013-03-23 19:37:00,
2013-03-23 15:42:00,34.2,3.7,30.06,ENE,68,4.0,-999.0,27,-99.99,,,0.00,meteohub,2013-03-23 19:42:00,
2013-03-23 15:47:00,34.3,6.3,30.06,NNW,338,5.0,-999.0,30,-99.99,,,0.00,meteohub,2013-03-23 19:47:00,
2013-03-23 15:52:00,34.2,6.1,30.06,NNE,22,3.0,-999.0,30,-99.99,,,0.00,meteohub,2013-03-23 19:52:00,
2013-03-23 15:57:00,34.5,6.4,30.06,NNW,338,5.0,-999.0,30,-99.99,,,0.00,meteohub,2013-03-23 19:57:00,
2013-03-23 16:02:00,34.5,6.4,30.06,NNE,22,2.0,-999.0,30,-99.99,,,0.00,meteohub,2013-03-23 20:02:00,
2013-03-23 16:07:00,34.5,6.4,30.06,ENE,68,4.0,-999.0,30,-99.99,,,0.00,meteohub,2013-03-23 20:07:00,
2013-03-23 16:12:00,34.5,6.4,30.06,NNE,22,3.0,-999.0,30,-99.99,,,0.00,meteohub,2013-03-23 20:12:00,
2013-03-23 16:18:00,34.5,6.4,30.06,East,90,5.0,-999.0,30,-99.99,,,0.00,meteohub,2013-03-23 20:18:00,
2013-03-23 16:23:00,34.9,6.6,30.06,NNE,22,4.0,-999.0,30,-99.99,,,0.00,meteohub,2013-03-23 20:23:00,
2013-03-23 16:28:00,34.9,4.5,30.06,ENE,68,4.0,-999.0,27,-99.99,,,0.00,meteohub,2013-03-23 20:28:00,
2013-03-23 16:51:00,35.1,4.5,30.06,NNW,338,4.0,-999.0,27,-99.99,,,0.00,meteohub,2013-03-23 20:51:00,
2013-03-23 16:56:00,34.7,4.3,30.09,NNW,338,2.0,-999.0,27,-99.99,,,0.00,meteohub,2013-03-23 20:56:00,
2013-03-23 17:01:00,34.7,4.3,30.09,NNE,22,5.0,-999.0,27,-99.99,,,0.00,meteohub,2013-03-23 21:01:00,
2013-03-23 17:07:00,34.5,4.1,30.09,North,0,6.0,-999.0,27,-99.99,,,0.00,meteohub,2013-03-23 21:07:00,
2013-03-23 17:12:00,34.3,3.9,30.06,NNW,338,5.0,-999.0,27,-99.99,,,0.00,meteohub,2013-03-23 21:12:00,
2013-03-23 17:17:00,34.3,3.9,30.06,NNE,22,6.0,-999.0,27,-99.99,,,0.00,meteohub,2013-03-23 21:17:00,
2013-03-23 17:22:00,34.5,4.1,30.06,NNE,22,3.0,-999.0,27,-99.99,,,0.00,meteohub,2013-03-23 21:22:00,
2013-03-23 17:27:00,34.7,4.3,30.09,NNW,338,3.0,-999.0,27,-99.99,,,0.00,meteohub,2013-03-23 21:27:00,
2013-03-23 17:32:00,34.5,4.1,30.09,NW,315,3.0,-999.0,27,-99.99,,,0.00,meteohub,2013-03-23 21:32:00,
2013-03-23 17:37:00,34.3,3.9,30.09,WNW,292,3.0,-999.0,27,-99.99,,,-99.99,meteohub,2013-03-23 21:37:00,
2013-03-23 17:42:00,34.3,3.9,30.09,WNW,292,3.0,-999.0,27,-99.99,,,-99.99,meteohub,2013-03-23 21:42:00,
2013-03-23 17:48:00,34.5,4.1,30.09,NNW,338,4.0,-999.0,27,-99.99,,,-99.99,meteohub,2013-03-23 21:48:00,
2013-03-23 17:53:00,34.5,4.1,30.09,NNW,338,5.0,-999.0,27,-99.99,,,-99.99,meteohub,2013-03-23 21:53:00,
2013-03-23 17:58:00,35.1,4.5,30.06,NNE,22,2.0,-999.0,27,-99.99,,,-99.99,meteohub,2013-03-23 21:58:00,
2013-03-23 18:04:00,35.6,5.0,30.06,NW,315,2.0,-999.0,27,-99.99,,,-99.99,meteohub,2013-03-23 22:04:00,
2013-03-23 18:09:00,36.0,5.4,30.06,North,0,5.0,-999.0,27,-99.99,,,-99.99,meteohub,2013-03-23 22:09:00,
2013-03-23 18:14:00,36.0,5.4,30.06,ENE,68,1.0,-999.0,27,-99.99,,,-99.99,meteohub,2013-03-23 22:14:00,
2013-03-23 18:19:00,36.3,5.5,30.06,NNW,338,4.0,-999.0,27,-99.99,,,-99.99,meteohub,2013-03-23 22:19:00,
2013-03-23 18:25:00,36.3,3.0,30.06,NW,315,2.0,-999.0,24,-99.99,,,-99.99,meteohub,2013-03-23 22:25:00,
2013-03-23 18:30:00,36.1,2.8,30.06,NW,315,8.0,-999.0,24,-99.99,,,-99.99,meteohub,2013-03-23 22:30:00,
2013-03-23 18:36:00,35.4,3.2,30.06,WNW,292,6.0,-999.0,25,-99.99,,,-99.99,meteohub,2013-03-23 22:36:00,
2013-03-23 18:41:00,35.4,4.8,30.06,NNW,338,5.0,-999.0,27,-99.99,,,-99.99,meteohub,2013-03-23 22:41:00,
2013-03-23 18:50:00,35.6,2.5,30.06,NW,315,3.0,-999.0,24,-99.99,,,-99.99,meteohub,2013-03-23 22:50:00,
2013-03-23 18:55:00,35.8,2.7,30.06,NNW,338,5.0,-999.0,24,-99.99,,,-99.99,meteohub,2013-03-23 22:55:00,
2013-03-23 19:00:00,35.6,5.0,30.06,NNE,22,4.0,-999.0,27,-99.99,,,-99.99,meteohub,2013-03-23 23:00:00,
2013-03-23 19:05:00,35.4,3.2,30.06,ENE,68,6.0,-999.0,25,-99.99,,,-99.99,meteohub,2013-03-23 23:05:00,
2013-03-23 19:11:00,35.2,3.0,30.06,NNW,338,4.0,-999.0,25,-99.99,,,-99.99,meteohub,2013-03-23 23:11:00,
2013-03-23 19:17:00,34.9,4.5,30.06,NNE,22,2.0,-999.0,27,-99.99,,,-99.99,meteohub,2013-03-23 23:17:00,
2013-03-23 19:22:00,34.5,4.1,30.06,NNW,338,5.0,-999.0,27,-99.99,,,-99.99,meteohub,2013-03-23 23:22:00,
2013-03-23 19:27:00,34.0,3.6,30.06,NNE,22,3.0,-999.0,27,-99.99,,,-99.99,meteohub,2013-03-23 23:27:00,
2013-03-23 19:33:00,33.8,3.4,30.06,NNW,338,4.0,-999.0,27,-99.99,,,-99.99,meteohub,2013-03-23 23:33:00,
2013-03-23 19:38:00,33.4,5.4,30.06,NNW,338,4.0,-999.0,30,-99.99,,,-99.99,meteohub,2013-03-23 23:38:00,
2013-03-23 19:43:00,33.3,5.2,30.06,NNW,338,2.0,-999.0,30,-99.99,,,-99.99,meteohub,2013-03-23 23:43:00,
2013-03-23 19:48:00,33.1,5.2,30.06,NNE,22,1.0,-999.0,30,-99.99,,,-99.99,meteohub,2013-03-23 23:48:00,
2013-03-23 20:12:00,32.4,4.5,30.06,NE,45,2.0,-999.0,30,-99.99,,,-99.99,meteohub,2013-03-24 00:12:00,
2013-03-23 20:17:00,32.2,4.3,30.06,NNE,22,2.0,-999.0,30,-99.99,,,-99.99,meteohub,2013-03-24 00:17:00,
2013-03-23 20:22:00,32.0,4.8,30.06,NE,45,2.0,-999.0,31,-99.99,,,-99.99,meteohub,2013-03-24 00:22:00,
2013-03-23 20:27:00,31.8,4.6,30.06,NNE,22,2.0,-999.0,31,-99.99,,,-99.99,meteohub,2013-03-24 00:27:00,
2013-03-23 20:32:00,31.6,4.5,30.06,North,0,2.0,-999.0,31,-99.99,,,-99.99,meteohub,2013-03-24 00:32:00,
2013-03-23 20:37:00,31.5,4.3,30.06,NNW,338,2.0,-999.0,31,-99.99,,,-99.99,meteohub,2013-03-24 00:37:00,
2013-03-23 20:43:00,31.5,4.3,30.06,NNE,22,3.0,-999.0,31,-99.99,,,-99.99,meteohub,2013-03-24 00:43:00,
2013-03-23 20:51:00,31.3,4.1,30.06,NNE,22,3.0,-999.0,31,-99.99,,,-99.99,meteohub,2013-03-24 00:51:00,
2013-03-23 21:08:00,31.1,4.6,30.09,North,0,2.0,-999.0,32,-99.99,,,-99.99,meteohub,2013-03-24 01:08:00,
2013-03-23 21:13:00,31.1,4.6,30.09,NNE,22,1.0,-999.0,32,-99.99,,,-99.99,meteohub,2013-03-24 01:13:00,
2013-03-23 21:18:00,30.9,4.6,30.09,NNE,22,1.0,-999.0,32,-99.99,,,-99.99,meteohub,2013-03-24 01:18:00,
2013-03-23 21:24:00,30.7,4.5,30.09,NNE,22,2.0,-999.0,32,-99.99,,,-99.99,meteohub,2013-03-24 01:24:00,
2013-03-23 21:29:00,30.6,4.3,30.09,North,0,0.0,-999.0,32,-99.99,,,-99.99,meteohub,2013-03-24 01:29:00,
2013-03-23 21:34:00,30.6,4.3,30.09,NNE,22,0.0,-999.0,32,-99.99,,,-99.99,meteohub,2013-03-24 01:34:00,
2013-03-23 21:39:00,30.4,4.1,30.09,NNE,22,0.0,-999.0,32,-99.99,,,-99.99,meteohub,2013-03-24 01:39:00,
2013-03-23 21:44:00,30.2,4.6,30.09,ENE,68,1.0,-999.0,33,-99.99,,,-99.99,meteohub,2013-03-24 01:44:00,
2013-03-23 21:49:00,30.0,4.5,30.09,ESE,112,0.0,-999.0,33,-99.99,,,-99.99,meteohub,2013-03-24 01:49:00,
2013-03-23 21:54:00,29.8,3.6,30.06,ENE,68,1.0,-999.0,32,-99.99,,,-99.99,meteohub,2013-03-24 01:54:00,
2013-03-23 21:59:00,29.5,3.9,30.06,ESE,112,1.0,-999.0,33,-99.99,,,-99.99,meteohub,2013-03-24 01:59:00,
2013-03-23 22:05:00,29.3,3.7,30.06,SE,135,2.0,-999.0,33,-99.99,,,-99.99,meteohub,2013-03-24 02:05:00,
2013-03-23 22:10:00,28.8,3.4,30.06,SE,135,0.0,-999.0,33,-99.99,,,-99.99,meteohub,2013-03-24 02:10:00,
2013-03-23 22:15:00,28.6,3.7,30.06,SSE,158,1.0,-999.0,34,-99.99,,,-99.99,meteohub,2013-03-24 02:15:00,
2013-03-23 22:20:00,28.0,3.9,30.06,ESE,112,2.0,-999.0,35,-99.99,,,-99.99,meteohub,2013-03-24 02:20:00,
2013-03-23 22:25:00,27.9,3.7,30.06,ESE,112,0.0,-999.0,35,-99.99,,,-99.99,meteohub,2013-03-24 02:25:00,
2013-03-23 22:31:00,27.7,4.8,30.06,SSE,158,0.0,-999.0,37,-99.99,,,-99.99,meteohub,2013-03-24 02:31:00,
2013-03-23 22:51:00,27.0,4.8,30.09,SSE,158,0.0,-999.0,38,-99.99,,,-99.99,meteohub,2013-03-24 02:51:00,
2013-03-23 22:56:00,27.0,4.8,30.06,SSE,158,0.0,-999.0,38,-99.99,,,-99.99,meteohub,2013-03-24 02:56:00,
2013-03-23 23:02:00,27.0,6.4,30.06,SSE,158,0.0,-999.0,41,-99.99,,,-99.99,meteohub,2013-03-24 03:02:00,
2013-03-23 23:07:00,26.8,5.7,30.06,SSE,158,0.0,-999.0,40,-99.99,,,-99.99,meteohub,2013-03-24 03:07:00,
2013-03-23 23:12:00,26.8,5.7,30.06,SSE,158,0.0,-999.0,40,-99.99,,,-99.99,meteohub,2013-03-24 03:12:00,
2013-03-23 23:28:00,26.4,5.9,30.06,SSE,158,0.0,-999.0,41,-99.99,,,-99.99,meteohub,2013-03-24 03:28:00,
2013-03-23 23:34:00,26.4,6.4,30.06,SSE,158,0.0,-999.0,42,-99.99,,,-99.99,meteohub,2013-03-24 03:34:00,
2013-03-23 23:43:00,26.2,6.3,30.06,SSE,158,0.0,-999.0,42,-99.99,,,-99.99,meteohub,2013-03-24 03:43:00,
2013-03-23 23:48:00,26.2,6.8,30.06,SE,135,0.0,-999.0,43,-99.99,,,-99.99,meteohub,2013-03-24 03:48:00,
2013-03-23 23:53:00,26.2,6.8,30.06,SE,135,0.0,-999.0,43,-99.99,,,-99.99,meteohub,2013-03-24 03:53:00,